Weather in Alsunga

Latvia     56°58′52″N   21°33′36″E
temp.,
°C
wind,
m/s
gust,
m/s
humid.,
%
clouds,
%
prec.,
mm/h
press.,
hPa
HPBL,
m
10 april, sat
sat1000:00+4sw815888 0.0 1007719
03:00+3sw713884 0.0 1008613
06:00+3wsw612835 0.0 1008677
09:00+4wsw61173100 0.0 1010970
12:00+5wsw711622 0.0 10111279
15:00+5wsw710611 0.0 10141079
18:00+5wsw58590 0.0 1016721
21:00+2ssw48800 0.0 1017260
11 april, sun
sun1100:00+1ssw389060 0.0 1019248
03:000s379182 0.0 1020156
06:000s3683100 0.0 1021148
09:00+3sse356074 0.0 1022256
12:00+7se343696 0.0 1022651
15:00+8se4646100 0.1 1021941
18:00+8ese51172100 0.1 1019570
21:00+7ese5139380 0.1 1018344
12 april, mon
mon1200:00+8se51490100 0.0 1017332
03:00+8sse5138269 0.0 1017301
06:00+7sse5138299 0.0 1016316
09:00+9sse51276100 0.0 1016403
12:00+12sse51065100 0.0 1016644
15:00+10s4978100 0.3 1016764
18:00+8s4992100 1.3 1016422
21:00+6wsw3796100 2.0 1017351
13 april, tue
tue1300:00+5wsw2594100 0.3 1017233
03:00+4wsw3594100 0.3 1018242
06:00+4w3688100 0.0 1018327
09:00+4w3682100 0.0 1019378
12:00+5w4672100 0.0 1019527
15:00+5w4573100 0.0 1020666
18:00+4w3576100 0.0 1020503
21:00+3wsw2586100 0.0 1021246
14 april, wed
wed1400:00+2w2288100 0.0 102143
03:00+2nnw12905 0.0 102113
06:00+1nw2389100 0.0 102176
09:00+3nnw4677100 0.0 1021557
12:00+5nnw5666100 0.0 1022870
15:00+5nnw675974 0.0 1022996
18:00+4n67615 0.0 1023896
21:00+1n597894 0.0 1023620